Simultaneous Nadir Overpasses (SNOs) Predictions

Prediction of SNOs between GOES-17 and AQUA Satellite Orbit:

Table of predicted SNOs for the next 14.0 days since TLE Epoch: 11/16/2019
Index Date Time (GOES-17) GOES-17 Lat,Lon AQUA Lat,Lon Distance(km) Time Diff (sec)
1 11/16/2019 10:57:34 0.01,-137.21 0.62,-140.13 331.39 80
2 11/18/2019 10:42:43 -0.00,-137.20 -0.03,-137.18 4.27 80
3 11/20/2019 10:30:31 -0.01,-137.18 -0.63,-134.21 337.60 80
4 11/20/2019 22:51:55 0.01,-137.18 -0.44,-139.41 252.93 80
5 11/22/2019 22:42:23 0.01,-137.16 0.16,-136.45 81.16 80
6 11/24/2019 22:30:11 0.00,-137.13 0.77,-133.48 414.91 80
7 11/25/2019 10:51:27 0.00,-137.13 0.33,-138.64 172.19 80
8 11/27/2019 10:36:35 0.01,-137.09 -0.28,-135.68 160.69 80
9 11/27/2019 23:00:38 -0.01,-137.08 -0.84,-140.86 430.45 80
10 11/29/2019 10:24:23 0.00,-137.06 -0.90,-132.72 492.86 80
11 11/29/2019 22:48:26 -0.01,-137.04 -0.22,-137.90 98.40 80




NCC Satellite Simultaneous Nadir Overpasses (SNOs) Prediction Service
